This demonstration page uses our WeatherBlox Daily Observations layout. Learn more.

Left ArrowRight Arrow

Hourly Observations for June 5, 2015

Temp ( °F °C ) Dew Point ( °F °C ) Humidity (%) Winds ( mph kmh ) Pressure ( in mb ) Visibility ( mi km ) Precip ( " mm )
12:03 am 00:03 Clear with Nearby Thunderstorms 55 13 50 10 82 82 Calm 30.00 1016 10 16 0.00 0.00
12:18 am 00:18 Clear 55 12.8 51 10.6 87 87 E 6 9 30.00 1016 10 16 0.00 0.00
12:53 am 00:53 Clear 53 11.7 50 10 89 89 N 3 6 30.04 1017 10 16 0.00 0.00
1:53 am 01:53 Clear 50 10 49 9.4 96 96 ESE 3 6 30.04 1017 10 16 0.00 0.00
2:53 am 02:53 Clear 50 10 49 9.4 96 96 SE 3 6 30.04 1017 10 16 0.00 0.00
3:53 am 03:53 Clear with Mist and Fog 47 8.3 47 8.3 100 100 Calm 30.04 1017 2 3 0.00 0.00
4:04 am 04:04 Clear with Mist and Fog 48 9 48 9 100 100 E 5 7 30.06 1018 6 10 0.00 0.00
4:17 am 04:17 Mostly Clear with Mist and Fog 45 7.2 45 7.2 100 100 SSW 3 6 30.06 1018 2 2 0.00 0.00
4:19 am 04:19 Mostly Cloudy with Mist and Fog 45 7.2 45 7.2 100 100 SSW 3 6 30.06 1018 1 2 0.00 0.00
4:27 am 04:27 Mostly Cloudy with Mist and Fog 46 7.8 45 7.2 96 96 Calm 30.06 1018 1 1 0.00 0.00
4:30 am 04:30 Mostly Clear with Mist and Fog 46 8 46 8 100 100 Calm 30.06 1018 1 2 0.00 0.00
4:39 am 04:39 Mostly Cloudy with Mist and Fog 47 8.3 47 8.3 100 100 Calm 30.06 1018 1 1 0.00 0.00
4:53 am 04:53 Mostly Cloudy with Mist and Fog 48 8.9 48 8.9 100 100 Calm 30.04 1017 1 1 0.00 0.00
5:08 am 05:08 Mostly Cloudy with Fog 48 9 48 9 100 100 ENE 3 6 30.06 1018 0 0 0.00 0.00
5:53 am 05:53 Mostly Cloudy with Fog 50 10 50 10 100 100 SSE 3 6 30.04 1017 5 8 0.00 0.00
6:53 am 06:53 Mostly Cloudy with Fog 52 11.1 52 11.1 100 100 NE 5 7 30.05 1018 0 0 0.00 0.00
7:37 am 07:37 Mostly Cloudy with Mist and Fog 54 12.2 53 11.7 97 97 ENE 8 13 30.03 1017 1 2 0.00 0.00
7:39 am 07:39 Cloudy with Mist and Fog 54 12.2 53 11.7 97 97 NE 7 11 30.03 1017 3 5 0.00 0.00
7:47 am 07:47 Cloudy with Mist and Fog 54 12 54 12 100 100 ENE 8 13 30.03 1017 2 3 0.00 0.00
7:51 am 07:51 Cloudy with Mist and Fog 54 12 54 12 100 100 ENE 8 13 30.03 1017 1 1 0.00 0.00
7:53 am 07:53 Mostly Cloudy with Fog 54 12.2 54 12.2 100 100 ENE 8 13 30.06 1018 1 1 0.00 0.00
8:04 am 08:04 Mostly Cloudy with Fog 54 12 54 12 100 100 ENE 7 11 30.03 1017 0 0 0.00 0.00
8:37 am 08:37 Mostly Cloudy with Mist and Fog 55 12.8 54 12.2 96 96 ENE 6 9 30.00 1016 1 2 0.00 0.00
8:53 am 08:53 Cloudy with Mist and Fog 55 12.8 55 12.8 100 100 NE 8 13 30.05 1018 1 2 0.00 0.00
8:55 am 08:55 Cloudy with Mist and Fog 55 12.8 55 12.8 100 100 NE 8 13 30.00 1016 2 3 0.00 0.00
9:03 am 09:03 Cloudy with Mist and Fog 55 13 55 13 100 100 ENE 9 15 30.00 1016 5 8 0.00 0.00
9:50 am 09:50 Partly Cloudy 61 16 55 13 83 83 NE 10 17 29.97 1015 10 16 0.00 0.00
9:53 am 09:53 Partly Cloudy 61 16.1 56 13.3 84 84 ENE 8 13 30.05 1018 10 16 0.00 0.00
10:53 am 10:53 Sunny 69 20.6 57 13.9 66 66 ENE 9 15 30.04 1017 10 16 0.00 0.00
11:53 am 11:53 Sunny 72 22.2 56 13.3 57 57 E 12 19 30.02 1017 10 16 0.00 0.00
12:53 pm 12:53 Sunny 74 23.3 55 12.8 52 52 E 7 11 30.00 1016 10 16 0.00 0.00
1:53 pm 13:53 Mostly Sunny 77 25 55 12.8 47 47 E 12 19 29.98 1015 10 16 0.00 0.00
2:53 pm 14:53 Mostly Sunny 78 25.6 56 13.3 47 47 E 12 19 29.97 1015 10 16 0.00 0.00
3:37 pm 15:37 Partly Cloudy with Nearby Thunderstorms 75 23.9 58 14.4 55 55 ESE 15 24 29.88 1012 10 16 0.00 0.00
3:53 pm 15:53 Partly Cloudy 76 24.4 58 14.4 54 54 E 13 20 29.96 1015 10 16 0.00 0.00
4:53 pm 16:53 Sunny 77 25 53 11.7 43 43 ESE 8 13 29.94 1014 10 16 0.00 0.00
5:53 pm 17:53 Sunny 76 24.4 53 11.7 45 45 ESE 12 19 29.92 1013 10 16 0.00 0.00
6:53 pm 18:53 Sunny 76 24.4 52 11.1 43 43 ESE 5 7 29.91 1013 10 16 0.00 0.00
7:53 pm 19:53 Mostly Sunny 72 22.2 57 13.9 59 59 E 7 11 29.91 1013 10 16 0.00 0.00
8:53 pm 20:53 Mostly Sunny 66 18.9 52 11.1 61 61 ENE 8 13 29.93 1014 10 16 0.00 0.00
9:53 pm 21:53 Clear 62 16.7 53 11.7 73 73 E 8 13 29.94 1014 10 16 0.00 0.00
10:53 pm 22:53 Clear 59 15 54 12.2 83 83 Calm 29.93 1014 10 16 0.00 0.00
11:53 pm 23:53 Clear 54 12.2 52 11.1 93 93 SSW 5 7 29.91 1013 10 16 0.00 0.00

Powered by AerisWeather